Voltar ao catálogo

USA 112

AtivoMilitarHEO
NORAD 23609·PAYLOAD·🇺🇸 United States

Lançado Jul 10, 1995 de Cape Canaveral Space Force Station

Loading…

Próximas Passagens (próximas 24 horas)

TLE

AtualizadoSource: Mike McCants

Época: Sep 14, 2026, 21:41 UTC

1 23609U 95034A   26257.90377370 -.00000572  00000-0  00000-0 0    07
2 23609  63.3156 101.9757 6930099 270.4766  17.3281  2.00591770  4573

Acompanhe USA 112 em tempo real com AllMySat

Download on the App Store